Petersburg, AK

10:57 AM AKDT on April 29, 2017 (GMT -0800)
Johnson Petersburg

Weather History for PAPG - August, 2013

Change the Weather History Date:

Thursday, August 8, 2013

  Actual Average Record
Temperature  
Mean Temperature 58 °F -  
Max Temperature 60 °F 60 °F 78 °F (1993)
Min Temperature 55 °F 48 °F 42 °F (1986)
Degree Days  
Heating Degree Days 8    
Growing Degree Days 8 (Base 50)    
Moisture  
Dew Point 56 °F    
Average Humidity 91    
Maximum Humidity 94    
Minimum Humidity 88    
Precipitation  
Precipitation 0.00 in - - ()
Sea Level Pressure  
Sea Level Pressure 30.01 in    
Wind  
Wind Speed 2 mph (NNE)    
Max Wind Speed 6 mph    
Max Gust Speed -    
Visibility 6 miles    
Events Fog , Rain    
Averages and records for this station are not official NWS values.
T = Trace of Precipitation, MM = Missing Value Source: NWS Daily Summary

Daily Weather History Graph

Daily Weather History Graph

Search for Another Location

Airport or City:

Trip Planner

Search our weather history database for the weather conditions in past years. The results will help you decide how hot, cold, wet, or windy it might be!

Date:

Astronomy

Aug. 08, 2013 Rise Set
Actual Time 5:06 AM AKDT 8:46 PM AKDT
Civil Twilight 4:19 AM AKDT 9:33 PM AKDT
Nautical Twilight 3:11 AM AKDT 10:40 PM AKDT
Astronomical Twilight 1:29 AM AKDT 12:24 AM AKDT
Moon 7:36 AM AKDT (8/8) 8:46 PM AKDT (8/8)
Length of Visible Light 17h 14m
Length of Day
15h 40m
Waxing Crescent, 4% of the Moon is Illuminated
Aug 8
Waxing Crescent
Aug 14
First Quarter
Aug 20
Full
Aug 28
Last Quarter
Sep 5
New

Hourly Weather History & Observations

Time (AKDT) Temp. Dew Point Humidity Pressure Visibility Wind Dir Wind Speed Gust Speed Precip Events Conditions
4:36 AM 57.2 °F 53.6 °F 88% 29.96 in 10.0 mi Calm Calm - N/A   Overcast
6:00 AM 57.2 °F 53.6 °F 88% 29.96 in 10.0 mi Calm Calm - N/A   Overcast
6:36 AM 57.2 °F 53.6 °F 88% 29.97 in 3.0 mi ENE 5.8 mph - N/A   Overcast
6:55 AM 55.4 °F 53.6 °F 94% 29.98 in 5.0 mi ENE 5.8 mph - N/A Rain Light Rain
7:16 AM 55.4 °F 53.6 °F 94% 29.98 in 5.0 mi ESE 3.5 mph - N/A   Overcast
7:55 AM 57.2 °F 55.4 °F 94% 29.98 in 4.0 mi Calm Calm - N/A Rain Light Rain
8:55 AM 57.2 °F 55.4 °F 94% 29.99 in 3.0 mi Calm Calm - N/A Rain Light Rain
10:10 AM 57.2 °F 55.4 °F 94% 29.99 in 3.0 mi Calm Calm - N/A Rain Light Rain
10:55 AM 59.0 °F 57.2 °F 94% 30.00 in 3.0 mi Calm Calm - N/A Rain Light Rain
11:40 AM 57.2 °F 55.4 °F 94% 30.01 in 1.5 mi NNE 5.8 mph - N/A Rain Light Rain
12:55 PM 57.2 °F 55.4 °F 94% 30.05 in 2.0 mi NNE 4.6 mph - N/A Rain Light Rain
1:38 PM 57.2 °F 55.4 °F 94% 30.02 in 1.5 mi North 3.5 mph - N/A   Overcast
1:56 PM 57.2 °F 55.4 °F 94% 30.03 in 1.5 mi NNE 3.5 mph - N/A   Overcast
2:25 PM 57.2 °F 55.4 °F 94% 30.03 in 2.5 mi North 3.5 mph - N/A Rain Light Rain
2:55 PM 59.0 °F 57.2 °F 94% 30.03 in 3.0 mi Calm Calm - N/A Rain Light Rain
3:15 PM 60.8 °F 57.2 °F 88% 30.03 in 10.0 mi Calm Calm - N/A Rain Light Rain Showers
3:16 PM 60.8 °F 57.2 °F 88% 30.03 in 10.0 mi Calm Calm - N/A   Overcast
3:55 PM 60.8 °F 57.2 °F 88% 30.03 in 7.0 mi WNW 3.5 mph - N/A Fog , Rain Light Rain
4:56 PM 60.8 °F 57.2 °F 88% 30.03 in 10.0 mi NNW 3.5 mph - N/A   Overcast
5:55 PM 60.8 °F 57.2 °F 88% 30.03 in 10.0 mi Calm Calm - N/A Rain Light Rain Showers
6:16 PM 60.8 °F 57.2 °F 88% 30.03 in 10.0 mi Calm Calm - N/A   Overcast
7:20 PM 60.8 °F 57.2 °F 88% 30.03 in 10.0 mi Calm Calm - N/A   Overcast
7:55 PM 60.8 °F 57.2 °F 88% 30.03 in 10.0 mi Calm Calm - N/A   Overcast
8:16 PM 59.0 °F 55.4 °F 88% 30.03 in 10.0 mi Calm Calm - N/A   Overcast
9:55 PM 59.0 °F 55.4 °F 88% 30.05 in 10.0 mi Calm Calm - N/A Rain Light Rain
10:36 PM 57.2 °F 55.4 °F 94% 30.05 in 3.0 mi Calm Calm - N/A   Overcast